Flag for Norway Weather past 2 weeks in Brønnøysund, Norway

Now
54 °F

Scattered clouds.


Feels Like: 49 °F
Forecast: 49 / 56 °F
Wind: 14 mph from North

Location: Bronnoysund / Bronnoy

Current Time: Jul 7, 2015 at 11:06:22 AM

Latest Report: Jul 7, 2015 at 10:20 AM


Visibility: N/A

Pressure: 29.47 "Hg

Humidity: 82%

Dew point: 48 °F

Location of BrønnøysundLocation

Historic Weather in Brønnøysund — Graph

°F

Brønnøysund temperature yesterday

Maximum temperature yesterday: 68 °F (at 12:20 PM)
Minimum temperature yesterday: 50 °F (at 1:20 AM)
Average temperature yesterday: 59 °F

Past Weeks' High & Low Weather Summary

 TemperatureHumidityPressure
High70 °F (Jul 2, 12:50 PM)100% (Jun 23, 3:20 PM)30.27 "Hg (Jun 23, 3:20 PM)
Low45 °F (Jun 26, 10:50 PM)56% (Jul 2, 4:50 PM)29.47 "Hg (Jul 7, 2:20 AM)
Average52 °F82%29.96 "Hg
* Reported Jun 22 9:20 AM — Jul 7 9:50 AM, Brønnøysund, Weather by CustomWeather, © 2015

Note: Actual official high and low records may vary slightly from our data, if they occured in-between our weather recording intervals... More about our weather records

Advertising

Brønnøysund weather history for previous 24 hours

 ConditionsComfort  
Time TempWeatherWind HumidityBarometerVisibility
9:50 AM
Tue, Jul 7
54 °FScattered clouds.16 mph82%29.47 "HgN/A
9:20 AM52 °FScattered clouds.16 mph88%29.47 "HgN/A
8:50 AM52 °FScattered clouds.18 mph82%29.47 "HgN/A
8:20 AM54 °FScattered clouds.20 mph82%29.47 "HgN/A
7:50 AM52 °FScattered clouds.16 mph88%29.47 "HgN/A
7:20 AM54 °FScattered clouds.13 mph82%29.47 "HgN/A
6:50 AM52 °FScattered clouds.15 mph88%29.47 "HgN/A
6:20 AM52 °FScattered clouds.14 mph88%29.47 "HgN/A
5:50 AM52 °FScattered clouds.14 mph88%29.47 "HgN/A
5:20 AM52 °FPartly sunny.13 mph88%29.47 "HgN/A
4:50 AM52 °FSunny.15 mph88%29.47 "HgN/A
4:20 AM52 °FSunny.15 mph88%29.47 "HgN/A
3:50 AM52 °FSunny.15 mph88%29.47 "HgN/A
3:20 AM52 °FSunny.16 mph88%29.47 "HgN/A
2:50 AM52 °FClear.15 mph94%29.47 "HgN/A
2:20 AM52 °FMostly cloudy.12 mph94%29.47 "HgN/A
1:50 AM54 °FSunny.7 mph88%29.50 "HgN/A
1:20 AM52 °FSunny.6 mph94%29.50 "HgN/A
12:50 AM54 °FMore clouds than sun.9 mph88%29.50 "HgN/A
12:20 AM54 °FSunny.8 mph88%29.50 "HgN/A
11:50 PM
Mon, Jul 6
54 °FSunny.9 mph88%29.53 "HgN/A
10:50 PM55 °FScattered clouds.13 mph88%29.53 "HgN/A
10:20 PM55 °FScattered clouds.12 mph88%29.53 "HgN/A
9:50 PM59 °FScattered clouds.6 mph77%29.53 "HgN/A
9:20 PM59 °FScattered clouds.7 mph77%29.56 "HgN/A
8:50 PM57 °FScattered clouds.6 mph82%29.56 "HgN/A
8:20 PM57 °FScattered clouds.3 mph88%29.56 "HgN/A
7:50 PM57 °FPartly sunny.5 mph88%29.56 "HgN/A
7:20 PM57 °FScattered showers. Partly sunny.5 mph88%29.59 "HgN/A
6:50 PM57 °FScattered showers. Scattered clouds.1 mph88%29.59 "HgN/A
6:20 PM57 °FRain showers. Broken clouds.5 mph88%29.59 "HgN/A
5:50 PM59 °FMixture of precip. Scattered clouds.9 mph77%29.62 "HgN/A
5:20 PM61 °FScattered clouds.8 mph72%29.62 "HgN/A
4:50 PM61 °FScattered clouds.12 mph72%29.62 "HgN/A
4:20 PM64 °FScattered clouds.8 mph64%29.62 "HgN/A
3:50 PM66 °FScattered clouds.12 mph64%29.62 "HgN/A
3:20 PM68 °FScattered clouds.12 mph60%29.65 "HgN/A
2:50 PM68 °FSunny.9 mph56%29.65 "Hg10 mi
2:20 PM68 °FSunny.10 mph60%29.65 "Hg10 mi
1:50 PM68 °FSunny.10 mph56%29.65 "Hg10 mi
1:20 PM68 °FSunny.13 mph60%29.65 "Hg10 mi
12:50 PM68 °FPassing clouds.9 mph56%29.68 "HgN/A
12:20 PM68 °FSunny.12 mph60%29.68 "Hg10 mi
11:50 AM66 °FSunny.15 mph60%29.68 "Hg10 mi
11:20 AM66 °FSunny.14 mph60%29.68 "Hg10 mi
Weather by CustomWeather, © 2015

See weather overviewHow to use our weather pages